Weather History for KAHQ - September, 2014

Change the Weather History Date:

Saturday, September 20, 2014

  Actual Average Record
Temperature  
Mean Temperature 74 °F -  
Max Temperature 85 °F 75 °F 90 °F (1972)
Min Temperature 61 °F 49 °F 28 °F (1991)
Cooling Degree Days 8    
Growing Degree Days 24 (Base 50)    
Moisture  
Dew Point 60 °F    
Average Humidity 62    
Maximum Humidity 85    
Minimum Humidity 31    
Precipitation  
Precipitation 0.24 in - - ()
Sea Level Pressure  
Sea Level Pressure 29.92 in    
Wind  
Wind Speed 8 mph (West)    
Max Wind Speed 22 mph    
Max Gust Speed 30 mph    
Visibility 10 miles    
Events Rain    
Averages and records for this station are not official NWS values.
T = Trace of Precipitation, MM = Missing Value Source: NWS Daily Summary

Daily Weather History Graph

Daily Weather History Graph

Search for Another Location

Airport or City:

Trip Planner

Search our weather history database for the weather conditions in past years. The results will help you decide how hot, cold, wet, or windy it might be!

Date:

Astronomy

Sep. 20, 2014 Rise Set
Actual Time 7:11 AM CDT 7:26 PM CDT
Civil Twilight 6:44 AM CDT 7:54 PM CDT
Nautical Twilight 6:11 AM CDT 8:26 PM CDT
Astronomical Twilight 5:38 AM CDT 8:59 PM CDT
Moon 3:50 AM CDT (9/20) 5:32 PM CDT (9/20)
Length of Visible Light 13h 10m
Length of Day
12h 15m
Waning Crescent, 11% of the Moon is Illuminated
Sep 20
Waning Crescent
Sep 24
New
Oct 1
First Quarter
Oct 8
Full
Oct 15
Last Quarter

Hourly Weather History & Observations

Time (CDT) Temp. Heat Index Dew Point Humidity Pressure Visibility Wind Dir Wind Speed Gust Speed Precip Events Conditions
12:15 AM 74.8 °F - 66.6 °F 75% 29.80 in 10.0 mi SSW 11.5 mph 17.3 mph N/A   Clear
12:35 AM 75.0 °F - 66.2 °F 74% 29.80 in 10.0 mi SSW 12.7 mph 17.3 mph N/A   Clear
12:55 AM 74.8 °F - 65.7 °F 73% 29.80 in 10.0 mi SSW 11.5 mph 18.4 mph N/A   Scattered Clouds
1:15 AM 74.8 °F - 65.5 °F 73% 29.81 in 10.0 mi SW 11.5 mph 17.3 mph N/A   Mostly Cloudy
1:35 AM 74.5 °F - 65.3 °F 73% 29.81 in 10.0 mi SW 10.4 mph 18.4 mph N/A   Mostly Cloudy
1:55 AM 74.3 °F - 64.6 °F 72% 29.82 in 10.0 mi SW 10.4 mph - N/A   Scattered Clouds
2:15 AM 74.3 °F - 64.2 °F 71% 29.83 in 10.0 mi SW 9.2 mph - N/A   Scattered Clouds
2:35 AM 75.0 °F - 63.3 °F 67% 29.83 in 10.0 mi WSW 8.1 mph - N/A   Mostly Cloudy
2:55 AM 73.6 °F - 63.3 °F 70% 29.84 in 10.0 mi NW 3.5 mph - N/A   Mostly Cloudy
3:15 AM 72.1 °F - 63.1 °F 73% 29.85 in 10.0 mi NW 4.6 mph - N/A   Mostly Cloudy
3:35 AM 71.8 °F - 63.1 °F 74% 29.85 in 10.0 mi NW 4.6 mph - N/A   Overcast
3:55 AM 72.5 °F - 63.0 °F 72% 29.89 in 10.0 mi NW 11.5 mph - N/A   Overcast
4:15 AM 73.4 °F - 62.6 °F 69% 29.86 in 10.0 mi West 9.2 mph - N/A Rain Light Rain
4:35 AM 71.8 °F - 63.9 °F 76% 29.86 in 7.0 mi WSW 13.8 mph 25.3 mph 0.06 in Rain Rain
4:55 AM 70.2 °F - 63.5 °F 79% 29.85 in 1.8 mi SW 21.9 mph 29.9 mph 0.22 in Rain Heavy Rain
5:15 AM 70.0 °F - 64.4 °F 82% 29.84 in 10.0 mi SW 10.4 mph 24.2 mph 0.02 in Rain Light Rain
5:35 AM 69.3 °F - 63.9 °F 83% 29.85 in 10.0 mi West 6.9 mph - 0.02 in   Scattered Clouds
5:55 AM 69.8 °F - 63.0 °F 79% 29.84 in 10.0 mi West 9.2 mph - 0.02 in   Clear
6:15 AM 69.3 °F - 62.8 °F 80% 29.83 in 10.0 mi West 5.8 mph - N/A   Scattered Clouds
6:35 AM 67.5 °F - 62.8 °F 85% 29.86 in 10.0 mi SE 8.1 mph - N/A   Scattered Clouds
6:55 AM 68.9 °F - 63.5 °F 83% 29.88 in 10.0 mi Calm Calm - N/A   Mostly Cloudy
7:15 AM 68.4 °F - 63.7 °F 85% 29.91 in 10.0 mi NNW 5.8 mph - N/A   Overcast
7:35 AM 68.0 °F - 63.1 °F 84% 29.92 in 10.0 mi NW 3.5 mph - N/A   Mostly Cloudy
7:55 AM 68.2 °F - 63.5 °F 85% 29.92 in 10.0 mi SSW 5.8 mph - N/A   Mostly Cloudy
8:15 AM 67.6 °F - 62.6 °F 84% 29.92 in 10.0 mi South 4.6 mph - N/A   Scattered Clouds
8:35 AM 68.4 °F - 63.5 °F 84% 29.92 in 10.0 mi SSW 4.6 mph - N/A   Mostly Cloudy
8:55 AM 70.2 °F - 64.8 °F 83% 29.92 in 10.0 mi South 4.6 mph - N/A   Scattered Clouds
9:15 AM 70.9 °F - 65.3 °F 82% 29.94 in 10.0 mi NW 3.5 mph - N/A   Scattered Clouds
9:35 AM 71.6 °F - 65.1 °F 80% 29.93 in 10.0 mi Calm Calm - N/A   Scattered Clouds
9:55 AM 73.6 °F - 64.6 °F 73% 29.93 in 10.0 mi Calm Calm - N/A   Clear
10:15 AM 74.7 °F - 63.7 °F 69% 29.94 in 10.0 mi SW 3.5 mph - N/A   Clear
10:35 AM 76.1 °F - 64.0 °F 66% 29.94 in 10.0 mi Calm Calm - N/A   Clear
10:55 AM 77.4 °F - 62.8 °F 61% 29.94 in 10.0 mi SW 3.5 mph - N/A   Clear
11:15 AM 78.4 °F - 63.5 °F 60% 29.93 in 10.0 mi SSW 3.5 mph - N/A   Clear
11:35 AM 80.4 °F 81.4 °F 61.5 °F 52% 29.93 in 10.0 mi Calm Calm - N/A   Clear
11:55 AM 80.8 °F 82.0 °F 62.6 °F 54% 29.94 in 10.0 mi WNW 4.6 mph - N/A   Clear
12:15 PM 81.3 °F 81.8 °F 59.9 °F 48% 29.94 in 10.0 mi West 3.5 mph - N/A   Clear
12:35 PM 81.7 °F 82.0 °F 59.9 °F 47% 29.94 in 10.0 mi WNW 8.1 mph - N/A   Clear
12:55 PM 82.6 °F 82.6 °F 59.5 °F 45% 29.94 in 10.0 mi WNW 6.9 mph - N/A   Clear
1:15 PM 82.4 °F 82.2 °F 57.6 °F 43% 29.95 in 10.0 mi NW 5.8 mph - N/A   Clear
1:35 PM 83.3 °F 82.8 °F 57.0 °F 41% 29.95 in 10.0 mi West 5.8 mph - N/A   Clear
1:55 PM 83.8 °F 83.1 °F 57.0 °F 40% 29.95 in 10.0 mi WNW 6.9 mph - N/A   Clear
2:15 PM 84.0 °F 82.9 °F 55.4 °F 37% 29.95 in 10.0 mi WNW 8.1 mph - N/A   Clear
2:35 PM 84.2 °F 83.0 °F 55.6 °F 37% 29.95 in 10.0 mi WNW 6.9 mph - N/A   Clear
2:55 PM 84.2 °F 82.9 °F 54.5 °F 36% 29.94 in 10.0 mi WNW 9.2 mph - N/A   Clear
3:15 PM 84.7 °F 83.4 °F 54.9 °F 36% 29.94 in 10.0 mi NW 6.9 mph - N/A   Clear
3:35 PM 85.1 °F 83.5 °F 53.8 °F 34% 29.94 in 10.0 mi WNW 6.9 mph - N/A   Clear
3:55 PM 84.9 °F - 52.9 °F 33% 29.94 in 10.0 mi NW 8.1 mph - N/A   Clear
4:15 PM 84.7 °F - 51.1 °F 31% 29.94 in 10.0 mi WNW 9.2 mph 17.3 mph N/A   Clear
4:35 PM 84.6 °F - 51.4 °F 32% 29.94 in 10.0 mi NW 8.1 mph 16.1 mph N/A   Clear
4:55 PM 84.6 °F - 52.3 °F 33% 29.94 in 10.0 mi WNW 8.1 mph - N/A   Clear
5:15 PM 84.4 °F - 52.9 °F 34% 29.94 in 10.0 mi WNW 6.9 mph - N/A   Clear
5:35 PM 83.7 °F - 52.5 °F 34% 29.94 in 10.0 mi NW 6.9 mph - N/A   Clear
5:55 PM 83.1 °F 82.1 °F 54.0 °F 37% 29.94 in 10.0 mi WNW 6.9 mph - N/A   Clear
6:15 PM 82.0 °F 81.4 °F 55.0 °F 39% 29.94 in 10.0 mi WNW 4.6 mph - N/A   Clear
6:35 PM 80.4 °F 80.5 °F 56.3 °F 43% 29.95 in 10.0 mi West 4.6 mph - N/A   Clear
6:55 PM 78.3 °F - 57.9 °F 49% 29.94 in 10.0 mi West 3.5 mph - N/A   Clear
7:15 PM 76.3 °F - 59.0 °F 55% 29.95 in 10.0 mi Calm Calm - N/A   Clear
7:35 PM 73.9 °F - 59.4 °F 60% 29.95 in 10.0 mi West 3.5 mph - N/A   Clear
7:55 PM 71.1 °F - 59.9 °F 68% 29.95 in 10.0 mi West 4.6 mph - N/A   Clear
8:15 PM 70.5 °F - 60.1 °F 69% 29.96 in 10.0 mi WNW 3.5 mph - N/A   Clear
8:35 PM 69.4 °F - 58.5 °F 68% 29.97 in 10.0 mi WNW 6.9 mph - N/A   Clear
8:55 PM 69.8 °F - 57.0 °F 64% 29.98 in 10.0 mi WNW 5.8 mph - N/A   Clear
9:15 PM 70.3 °F - 55.9 °F 60% 29.99 in 10.0 mi WNW 5.8 mph - N/A   Clear
9:55 PM 68.9 °F - 53.6 °F 58% 30.02 in 10.0 mi NNW 8.1 mph - N/A   Clear
10:35 PM 67.5 °F - 51.6 °F 57% 30.06 in 10.0 mi NNW 8.1 mph - N/A   Clear
10:55 PM 65.5 °F - 52.3 °F 62% 30.07 in 10.0 mi NNW 6.9 mph - N/A   Clear
11:15 PM 63.5 °F - 53.1 °F 69% 30.08 in 10.0 mi NNW 5.8 mph - N/A   Clear
11:35 PM 62.6 °F - 52.9 °F 70% 30.08 in 10.0 mi NNW 5.8 mph - N/A   Clear
11:55 PM 61.2 °F - 52.7 °F 74% 30.09 in 10.0 mi WNW 5.8 mph - N/A   Clear